Погода в Омском

Россия / Омская область     55°06′10″N   73°20′38″E
темп.,
°C
ветер,
м/с
пор.,
м/с
влажн.,
%
обл.,
%
осадки,
мм/ч
давл.,
гПа
погр.,
м
27 сентября, пн
пн2700:00+1всв37765 0.0 1026169
03:00+1всв357464 0.0 1026115
06:00+3в4965100 0.0 1026529
09:00+2в6108219 0.0 1026498
12:00+6в8105976 0.0 10241223
15:00+6в71055100 0.0 10241483
18:00+6всв61068100 0.0 10241019
21:00+5в71170100 0.0 1024967
28 сентября, вт
вт2800:00+4в6126988 0.0 1024663
03:00+5всв61164100 0.0 1023608
06:00+5всв61060100 0.0 1023901
09:00+6всв6955100 0.0 10221367
12:00+7в7951100 0.0 10211540
15:00+8в7943100 0.0 10191729
18:00+8всв6947100 0.0 10181422
21:00+6всв61160100 0.0 1017776
29 сентября, ср
ср2900:00+4св61267100 0.0 1016440
03:00+3св51071100 0.0 1015364
06:00+3св5117396 0.0 1015371
09:00+4ссв5116658 0.0 1015533
12:00+8св664791 0.0 10161586
15:00+9ссв5540100 0.0 10161831
18:00+7ссв565169 0.0 1018983
21:00+4ссв356786 0.0 1019155
30 сентября, чт
чт3000:00+3с358465 0.0 102094
03:00+2с369165 0.0 1020127
06:00+1с359265 0.0 1021108
09:00+2с35845 0.0 1022237
12:00+6ссз346196 0.0 10221099
15:00+6сз3452100 0.1 10211247
18:00+5сз3457100 0.1 1021848
21:00+4зсз3570100 0.1 1022312
1 октября, пт
пт100:00+4зсз3673100 0.1 1021294
03:00+3з367398 0.0 1021225
06:00+1зюз4985100 0.0 1019198
09:00+3з51073100 0.0 1018366
12:00+7з6947100 0.0 1016919
15:00+7з71055100 0.0 10151198
18:00+3зсз6995100 1.5 1015810
21:00+2с61195100 0.9 1017632